{"data":{"norad_id":47405,"epoch":"2026-05-25T04:35:50.059104Z","epoch_age_seconds":55118,"freshness":"FRESH","line1":"1 47405U 21005BJ  26145.19155161  .00009856  00000+0  32891-3 0  9998","line2":"2 47405  53.1603  66.6153 0001156  77.4160 282.6971 15.31701983294744","mean_motion":15.31701983,"eccentricity":0.0001156,"inclination_deg":53.1603,"raan_deg":66.6153,"arg_perigee_deg":77.416,"mean_anomaly_deg":282.6971,"bstar":0.00032891,"rev_number":29474,"period_min":94.013066248018,"perigee_km":469.9423545149,"apogee_km":471.52581350952,"semimajor_km":6848.8710840122,"source":"CELESTRAK","updated_at":"2026-05-25T13:38:16.555351Z"}}